Location: Cactus School
(34.5700°N, 118.0931°W)
Time: 21:54:13
(UTC-07:00)

Vanguard 2 - Pass Details

Date: 26 April 2024
Orbit: 553 x 2914 km, 32.9° (Epoch: 18 May)

Event Time Altitude Azimuth Distance (km) Brightness Sun altitude
Exits shadow 03:36:27 24° 270° (W) 4,091 10.8 -27.6°
Maximum altitude 03:48:01 84° 186° (S) 2,860 10.2 -25.8°
Drops below altitude 10° 04:05:53 10° 101° (E) 5,565 12.4 -23.0°
Sets 04:09:53 0° 101° (E) 6,422 12.9 -22.3°
